This is the latest recevied weather packets stored in our database for station/object IU7URP-30. If no packets are shown the sender has not sent any weather packets the latest 10 day(s).
| Time | Temp. | Humidity | Pressure | Rain* | Wind** | Luminosity | Snow |
|---|---|---|---|---|---|---|---|
| 1777682490 | 8.89° C | 48% | 1025.9 hPa | - | - | - | - |
| 1777681590 | 9.44° C | 47% | 1025.9 hPa | - | - | - | - |
| 1777680690 | 9.44° C | 46% | 1025.9 hPa | - | - | - | - |
| 1777679790 | 9.44° C | 44% | 1026.1 hPa | - | - | - | - |
| 1777678889 | 9.44° C | 42% | 1025.9 hPa | - | - | - | - |
| 1777677989 | 9.44° C | 42% | 1025.9 hPa | - | - | - | - |
| 1777677089 | 9.44° C | 38% | 1025.8 hPa | - | - | - | - |
| 1777676189 | 8.89° C | 37% | 1026 hPa | - | - | - | - |
| 1777675288 | 9.44° C | 37% | 1025.8 hPa | - | - | - | - |
| 1777674389 | 8.33° C | 37% | 1025.6 hPa | - | - | - | - |
| 1777673488 | 8.33° C | 38% | 1025.6 hPa | - | - | - | - |
| 1777672588 | 7.22° C | 39% | 1025.7 hPa | - | - | - | - |
| 1777671688 | 7.22° C | 41% | 1025.7 hPa | - | - | - | - |
| 1777670787 | 7.22° C | 42% | 1025.8 hPa | - | - | - | - |
| 1777667186 | 7.78° C | 38% | 1025.8 hPa | - | - | - | - |
| 1777666286 | 8.33° C | 36% | 1025.6 hPa | - | - | - | - |
| 1777665385 | 8.33° C | 37% | 1025.5 hPa | - | - | - | - |
| 1777664485 | 8.89° C | 35% | 1025.5 hPa | - | - | - | - |
| 1777663585 | 9.44° C | 34% | 1025.3 hPa | - | - | - | - |
| 1777662685 | 9.44° C | 33% | 1025.1 hPa | - | - | - | - |
| 1777661785 | 10° C | 32% | 1024.9 hPa | - | - | - | - |
| 1777660884 | 10° C | 30% | 1024.6 hPa | - | - | - | - |
| 1777659984 | 10.56° C | 28% | 1024.6 hPa | - | - | - | - |
| 1777659084 | 10.56° C | 27% | 1024.5 hPa | - | - | - | - |
| 1777658184 | 11.11° C | 27% | 1024.5 hPa | - | - | - | - |
* Rain since midnight (hover to see other rain measurements)
** Current wind speed in m/s (hover to see current wind gust speed)